DW1521 Weather Reports


time (UTC)temp
F
wind
direction
speed
knots
gust
knots
rain 1hr
in
rain 24hr
in
rain mn
in
humidity
%
barometer
mb
20260506130335 81 87 0.9 5.2 0.00 0.00 0.00 29 1013.3
20260506125335 82 71 3.5 6.1 0.00 0.00 0.00 30 1013.5
20260506124335 81 27 2.6 6.1 0.00 0.00 0.00 30 1013.6
20260506123335 81 54 2.6 6.1 0.00 0.00 0.00 29 1013.5
20260506122836 81 104 2.6 6.1 0.00 0.00 0.00 29 1013.6
20260506121835 81 137 4.3 7.8 0.00 0.00 0.00 30 1013.8
20260506120835 81 89 4.3 7.8 0.00 0.00 0.00 29 1014.1
20260506114836 81 231 1.7 6.1 0.00 0.00 0.00 30 1014.5
20260506113835 81 278 0.9 2.6 0.00 0.00 0.00 30 1014.7
20260506113336 81 329 1.7 4.3 0.00 0.00 0.00 30 1014.6
20260506112836 80 265 1.7 4.3 0.00 0.00 0.00 30 1014.8
20260506111835 80 293 1.7 6.1 0.00 0.00 0.00 30 1014.9
20260506105336 79 221 2.6 5.2 0.00 0.00 0.00 31 1015.5
20260506104335 79 283 1.7 5.2 0.00 0.00 0.00 31 1015.5
20260506103835 79 311 1.7 5.2 0.00 0.00 0.00 33 1015.5
20260506101336 77 293 4.3 7.0 0.00 0.00 0.00 33 1015.7
20260506100835 77 75 1.7 5.2 0.00 0.00 0.00 34 1015.9
20260506094835 76 286 2.6 6.1 0.00 0.00 0.00 36 1016.3
20260506093336 75 220 1.7 7.0 0.00 0.00 0.00 37 1016.5
20260506091335 74 253 0.9 4.3 0.00 0.00 0.00 41 1016.5
20260506085835 73 300 1.7 6.1 0.00 0.00 0.00 42 1016.6
20260506085335 73 291 2.6 7.0 0.00 0.00 0.00 43 1016.8
20260506084335 72 212 2.6 6.1 0.00 0.00 0.00 45 1016.8
20260506082335 70 290 1.7 5.2 0.00 0.00 0.00 50 1017.0
20260506081335 69 298 0.9 4.3 0.00 0.00 0.00 52 1016.8
20260506071835 63 114 1.7 4.3 0.00 0.00 0.00 59 1017.2
20260506071336 62 159 0.9 2.6 0.00 0.00 0.00 59 1017.3
20260506070835 62 156 1.7 4.3 0.00 0.00 0.00 61 1017.3
20260506070335 61 135 1.7 2.6 0.00 0.00 0.00 61 1017.5
20260506061835 55 169 0.9 2.6 0.00 0.00 0.00 67 1017.7
20260506060335 52 147 1.7 2.6 0.00 0.00 0.00 69 1017.7
20260506043835 43 351 0.9 0.9 0.00 0.00 0.00 69 1017.0
20260506043335 43 10 0.0 0.0 0.00 0.00 0.00 69 1016.9
20260506042835 42 11 0.0 0.0 0.00 0.00 0.00 69 1016.9
20260506042335 42 21 0.0 0.0 0.00 0.00 0.00 69 1016.9
20260506040835 42 358 0.0 0.0 0.00 0.00 0.00 69 1017.0
20260506040335 42 26 0.0 0.9 0.00 0.00 0.00 69 1016.8
20260506032835 43 83 0.9 0.9 0.00 0.00 0.00 67 1016.3
20260506032335 43 71 0.0 1.7 0.00 0.00 0.00 67 1016.2
20260506031835 43 67 0.9 0.9 0.00 0.00 0.00 67 1016.2
20260506031335 43 51 0.0 0.9 0.00 0.00 0.00 67 1016.3
20260506030835 43 57 0.0 0.9 0.00 0.00 0.00 67 1016.3
20260506025336 43 51 0.0 0.9 0.00 0.00 0.00 66 1015.7
20260506024835 43 53 0.0 0.0 0.00 0.00 0.00 66 1015.8
20260506024335 44 66 0.0 0.9 0.00 0.00 0.00 67 1015.8
20260506023835 44 17 0.0 0.9 0.00 0.00 0.00 67 1015.6
20260506021835 44 13 0.0 0.9 0.00 0.00 0.00 67 1015.6
20260506020335 44 152 0.0 1.7 0.00 0.00 0.00 66 1015.5
20260506015835 44 156 0.0 1.7 0.00 0.00 0.00 66 1015.2
20260506014335 45 117 0.0 1.7 0.00 0.00 0.00 66 1015.1
20260506013335 45 107 0.9 1.7 0.00 0.00 0.00 66 1015.1
20260506012835 45 133 1.7 2.6 0.00 0.00 0.00 66 1015.1
20260506012335 46 33 0.0 1.7 0.00 0.00 0.00 66 1015.1
20260506010335 46 54 0.0 0.9 0.00 0.00 0.00 65 1015.0
20260506004335 46 130 0.0 0.9 0.00 0.00 0.00 64 1014.4
20260506003835 46 148 1.7 2.6 0.00 0.00 0.00 64 1014.5
20260506003335 46 112 1.7 1.7 0.00 0.00 0.00 64 1014.4
20260506002335 47 67 0.0 0.9 0.00 0.00 0.00 63 1014.3
20260506001835 47 68 0.0 0.9 0.00 0.00 0.00 63 1014.4
20260506001335 47 64 0.0 0.0 0.00 0.00 0.00 63 1014.2
20260506000335 47 67 0.0 0.9 0.00 0.00 0.00 62 1014.4
20260505235835 48 65 0.0 0.0 0.00 0.00 0.00 62 1013.9
20260505235335 48 67 0.0 0.9 0.00 0.00 0.00 62 1014.0
20260505233835 48 62 0.0 0.9 0.00 0.00 0.00 62 1014.0
20260505232835 49 67 0.9 0.9 0.00 0.00 0.00 61 1014.0
20260505230335 49 56 0.0 0.9 0.00 0.00 0.00 61 1014.0
20260505225335 50 58 0.0 0.9 0.00 0.00 0.00 60 1013.7
20260505224335 50 48 0.0 0.9 0.00 0.00 0.00 59 1013.7
20260505223835 50 45 0.0 0.0 0.00 0.00 0.00 59 1013.8
20260505223335 50 54 0.0 0.0 0.00 0.00 0.00 59 1013.7
20260505222835 51 67 0.0 0.0 0.00 0.00 0.00 59 1013.7
20260505220835 52 61 0.9 0.9 0.00 0.00 0.00 58 1013.6
20260505220335 52 59 0.9 0.9 0.00 0.00 0.00 58 1013.7
20260505215835 52 47 0.0 1.7 0.00 0.00 0.00 57 1013.4
20260505215335 52 56 0.9 0.9 0.00 0.00 0.00 57 1013.5
20260505214835 53 27 0.0 0.0 0.00 0.00 0.00 57 1013.3
20260505214335 53 27 0.0 0.0 0.00 0.00 0.00 57 1013.4
20260505213835 53 27 0.0 0.0 0.00 0.00 0.00 57 1013.4
20260505212835 53 14 0.9 0.9 0.00 0.00 0.00 56 1013.4
20260505212335 54 17 0.9 1.7 0.00 0.00 0.00 56 1013.4
20260505211335 54 43 0.0 0.9 0.00 0.00 0.00 56 1013.4
20260505205336 55 12 0.9 1.7 0.00 0.00 0.00 54 1013.4
20260505202835 57 24 0.9 0.9 0.00 0.00 0.00 53 1013.3
20260505202335 57 19 0.9 1.7 0.00 0.00 0.00 53 1013.3
20260505201835 58 58 0.9 0.9 0.00 0.00 0.00 51 1013.4
20260505200835 58 72 0.9 1.7 0.00 0.00 0.00 51 1013.4
20260505200335 58 71 0.9 0.9 0.00 0.00 0.00 51 1013.3
20260505195835 58 48 0.9 0.9 0.00 0.00 0.00 50 1013.1
20260505193835 59 78 0.0 0.0 0.00 0.00 0.00 49 1013.1
20260505192834 60 78 0.0 0.9 0.00 0.00 0.00 48 1013.0
20260505192335 60 78 0.0 0.0 0.00 0.00 0.00 48 1013.0
20260505191835 60 78 0.0 0.9 0.00 0.00 0.00 48 1013.2
20260505190835 61 77 0.9 2.6 0.00 0.00 0.00 48 1013.0
20260505190335 61 74 0.9 1.7 0.00 0.00 0.00 47 1012.8
20260505184835 62 87 0.9 4.3 0.00 0.00 0.00 48 1012.9
20260505184335 62 91 2.6 4.3 0.00 0.00 0.00 47 1012.9
20260505182335 63 86 0.9 6.1 0.00 0.00 0.00 46 1012.7
20260505181835 64 86 2.6 5.2 0.00 0.00 0.00 46 1012.5
20260505180835 64 104 1.7 4.3 0.00 0.00 0.00 44 1012.5
20260505180334 65 101 1.7 4.3 0.00 0.00 0.00 44 1012.4
20260505175835 65 77 1.7 5.2 0.00 0.00 0.00 43 1012.8
20260505175335 65 84 1.7 4.3 0.00 0.00 0.00 43 1012.7
20260505174335 66 91 2.6 5.2 0.00 0.00 0.00 43 1012.6
20260505173335 67 114 1.7 5.2 0.00 0.00 0.00 42 1012.5
20260505172335 68 111 1.7 4.3 0.00 0.00 0.00 41 1012.3
20260505170334 69 91 3.5 7.0 0.00 0.00 0.00 39 1012.4
20260505165834 70 88 1.7 5.2 0.00 0.00 0.00 39 1012.7
20260505164835 70 118 2.6 5.2 0.00 0.00 0.00 39 1012.6
20260505164335 71 117 2.6 5.2 0.00 0.00 0.00 38 1012.6
20260505163335 71 80 4.3 6.1 0.00 0.00 0.00 37 1012.7
20260505162835 71 115 0.9 6.1 0.00 0.00 0.00 36 1012.5
20260505162335 72 89 3.5 7.8 0.00 0.00 0.00 36 1012.6
20260505160335 73 80 4.3 7.0 0.00 0.00 0.00 35 1012.6
20260505152335 75 87 3.5 8.7 0.00 0.00 0.00 32 1013.1
20260505151335 76 319 1.7 6.1 0.00 0.00 0.00 30 1013.1
20260505150835 76 93 2.6 6.1 0.00 0.00 0.00 30 1013.1
20260505140335 77 322 1.7 7.8 0.00 0.00 0.00 28 1013.5